Date,TemperatureHighF,TemperatureAvgF,TemperatureLowF,DewpointHighF,DewpointAvgF,DewpointLowF,HumidityHigh,HumidityAvg,HumidityLow,PressureMaxIn,PressureMinIn,WindSpeedMaxMPH,WindSpeedAvgMPH,GustSpeedMaxMPH,PrecipitationSumIn
2013-1-1,26.6,17.4,14.2,21.2,15.0,12.3,95,90,70,30.74,30.62,1,0,1,0.00
2013-1-2,17.4,15.2,14.2,14.9,13.3,12.2,93,92,88,30.72,30.59,0,0,0,0.00
2013-1-3,25.2,16.5,9.9,14.9,11.7,7.3,92,82,57,30.60,30.45,1,0,1,0.00
2013-1-4,44.1,26.9,18.3,22.6,15.9,10.9,87,65,41,30.59,30.46,1,0,1,0.01
2013-1-5,27.7,22.3,17.4,26.3,21.0,16.3,99,95,85,30.51,30.39,1,0,1,0.00
2013-1-6,45.3,32.1,22.8,30.0,25.3,21.4,96,77,55,30.44,30.31,1,0,1,0.04
2013-1-7,50.4,38.2,33.8,37.8,30.6,25.3,85,75,63,30.33,30.23,1,0,1,0.00
2013-1-8,56.5,48.1,41.5,40.1,36.8,33.9,78,66,54,30.38,30.21,1,0,1,0.00
2013-1-9,48.7,39.8,27.5,34.3,28.1,18.7,76,64,46,30.22,29.99,1,0,1,0.00
2013-1-10,40.5,28.7,22.8,29.4,20.9,14.5,93,73,52,30.23,30.13,1,0,1,0.01
2013-1-11,36.0,24.6,16.7,20.3,15.7,11.5,89,69,51,30.44,30.22,0,0,0,0.00
2013-1-12,32.2,17.8,9.5,16.4,9.5,5.2,87,71,48,30.53,30.42,2,0,2,0.00
2013-1-13,34.2,17.9,6.4,15.2,8.4,1.4,86,68,38,30.59,30.51,1,0,1,0.00
2013-1-14,44.2,25.6,11.8,24.6,11.8,4.6,79,59,32,30.66,30.52,1,0,1,0.00
2013-1-15,51.8,32.8,19.2,24.3,19.3,12.8,79,60,35,30.78,30.65,1,0,1,0.00
2013-1-16,58.5,37.2,23.2,21.9,18.4,14.0,70,51,25,30.79,30.68,1,0,1,0.00
2013-1-17,55.4,37.9,26.6,20.1,17.7,15.2,64,47,26,30.70,30.58,2,0,2,0.00
2013-1-18,50.0,36.1,25.5,20.1,16.8,13.4,63,48,31,30.60,30.52,1,0,2,0.00
2013-1-19,61.9,38.6,25.3,25.1,18.6,14.6,66,49,21,30.61,30.53,2,0,2,0.00
2013-1-20,50.0,32.8,23.0,24.7,19.1,13.4,90,60,30,30.66,30.54,1,0,1,0.00
2013-1-21,50.7,27.6,16.2,24.6,18.6,12.4,93,72,26,30.56,30.42,1,0,1,0.00
2013-1-22,25.9,20.4,16.0,23.7,19.0,14.1,97,94,90,30.45,30.30,1,0,1,0.00
2013-1-23,37.6,26.3,22.1,34.0,25.6,21.4,99,97,84,30.37,30.13,1,0,1,0.00
2013-1-24,59.2,39.9,29.3,38.2,33.9,29.1,99,82,43,30.42,30.32,1,0,1,0.00
2013-1-25,48.2,43.9,38.8,45.3,41.0,37.1,99,90,78,30.37,30.18,15,0,15,0.17
2013-1-26,49.6,37.6,30.2,37.8,26.1,23.0,96,65,42,30.27,30.15,2,0,2,0.00
2013-1-27,43.2,33.5,26.6,27.8,24.7,22.0,88,71,47,30.32,30.22,1,0,1,0.00
2013-1-28,38.3,35.3,31.5,32.3,28.6,25.8,88,77,67,30.33,30.22,1,0,1,0.00
2013-1-29,47.1,40.2,36.7,33.8,31.5,29.4,79,71,60,30.60,30.32,1,0,1,0.00
2013-1-30,50.2,43.7,37.9,36.5,33.2,29.1,81,67,59,30.63,30.58,1,0,1,0.00
2013-1-31,54.9,40.3,29.7,37.2,33.1,28.9,99,77,50,30.60,30.51,1,0,1,0.00
2013-2-1,56.5,38.7,27.5,38.1,32.3,27.0,99,81,46,30.63,30.51,1,0,1,0.00
2013-2-2,48.9,35.0,23.9,34.8,30.0,23.7,99,84,58,30.65,30.49,0,0,0,0.00
2013-2-3,60.1,43.8,28.9,33.3,28.2,21.0,96,60,30,30.51,30.37,1,0,1,0.00
2013-2-4,57.4,43.2,34.3,34.2,29.9,26.4,77,61,36,30.40,30.19,0,0,0,0.00
2013-2-5,52.2,41.3,35.2,34.5,28.0,22.0,73,60,43,30.28,30.13,1,0,1,0.00
2013-2-6,50.4,40.0,33.3,27.3,25.5,22.1,75,58,38,30.33,30.13,1,0,1,0.00
2013-2-7,48.0,36.4,29.3,27.7,23.4,16.1,84,61,36,30.29,30.12,1,0,1,0.00
2013-2-8,45.9,32.7,19.9,28.6,21.6,17.5,99,68,36,30.39,30.29,0,0,0,0.00
2013-2-9,48.9,32.4,18.5,29.9,23.6,15.8,90,72,46,30.44,30.34,2,0,2,0.00
2013-2-10,51.3,35.6,23.4,33.3,24.3,20.3,99,68,36,30.51,30.42,1,0,1,0.00
2013-2-11,51.6,35.5,19.6,33.0,25.3,17.0,93,69,39,30.54,30.42,1,0,1,0.00
2013-2-12,52.5,39.4,29.5,35.8,30.5,27.2,96,73,48,30.62,30.53,2,0,2,0.00
2013-2-13,48.4,39.2,33.3,34.4,31.4,28.6,89,75,51,30.65,30.58,1,0,1,0.00
2013-2-14,62.8,40.6,26.2,38.9,33.1,25.8,99,78,41,30.72,30.64,1,0,1,0.00
2013-2-15,55.8,41.4,27.9,40.4,34.5,27.6,99,79,53,30.71,30.48,1,0,1,0.00
2013-2-16,34.9,33.4,31.1,33.2,31.0,29.0,97,91,84,30.49,30.40,1,0,1,0.00
2013-2-17,50.5,35.8,26.1,25.4,23.2,21.2,82,63,33,30.43,30.28,1,0,1,0.00
2013-2-18,41.2,33.0,23.5,28.9,24.6,21.0,93,73,52,30.28,30.08,1,0,1,0.00
2013-2-21,40.3,35.1,27.1,26.3,24.9,22.5,85,67,55,30.37,30.27,2,0,2,0.00
2013-2-22,50.9,38.6,29.1,35.3,28.9,24.1,99,69,50,30.37,30.07,3,0,3,0.00
2013-2-23,44.6,33.6,26.1,28.1,22.7,19.5,92,65,46,30.55,30.23,1,0,1,0.00
2013-2-24,52.2,34.8,21.7,28.0,22.5,17.1,89,64,33,30.58,30.30,1,0,1,0.00
2013-2-25,44.4,36.0,27.3,34.5,26.7,19.8,90,70,49,30.51,30.23,15,0,15,0.02
2013-2-26,52.2,37.3,22.6,23.6,17.2,6.6,82,49,18,30.55,30.43,1,0,1,0.00
2013-2-27,52.7,41.1,29.3,33.8,24.5,17.1,66,53,35,30.53,30.45,1,0,1,0.00
2013-2-28,56.7,47.9,40.3,42.0,37.6,29.3,83,68,57,30.65,30.44,3,0,3,0.00
2013-3-1,68.4,49.9,39.0,39.9,37.2,33.9,90,65,32,30.69,30.53,1,0,1,0.00
2013-3-2,58.8,46.1,38.3,38.6,34.9,31.4,84,67,44,30.54,30.34,1,0,1,0.00
2013-3-3,50.9,37.9,26.1,35.0,19.2,4.1,78,53,20,30.46,30.35,2,0,2,0.00
2013-3-4,49.5,34.4,17.4,21.4,17.9,14.5,89,55,32,30.45,30.19,1,0,1,0.00
2013-3-5,42.1,33.7,25.7,32.3,23.4,16.9,99,67,50,30.20,29.94,1,0,1,0.00
2013-3-6,40.8,34.3,30.2,38.8,30.5,24.5,99,87,58,30.18,29.80,3,0,3,0.11
2013-3-7,53.4,38.0,24.1,30.7,25.0,20.0,86,63,33,30.27,30.18,2,0,2,0.00
2013-3-8,51.1,38.4,28.4,32.9,27.2,21.2,97,68,40,30.42,30.22,1,0,1,0.00
2013-3-9,61.2,41.2,22.6,25.7,20.2,14.7,86,51,21,30.68,30.40,2,0,2,0.00
2013-3-10,64.8,43.2,26.1,39.9,27.0,18.6,80,57,23,30.68,30.57,2,0,2,0.00
2013-3-11,56.7,47.6,37.4,43.0,39.8,35.1,93,76,59,30.60,30.47,2,0,2,0.00
2013-3-12,67.8,49.4,35.2,41.6,36.1,24.6,98,67,24,30.48,30.36,1,0,1,0.00
2013-3-13,73.4,53.3,41.2,40.9,35.3,30.5,76,54,30,30.46,30.38,0,0,0,0.00
2013-3-14,72.5,53.4,40.1,39.3,33.0,17.1,80,53,23,30.39,30.32,11,0,11,0.00
2013-3-15,62.4,50.7,39.6,41.0,36.6,29.0,86,61,31,30.46,30.40,1,0,1,0.00
2013-3-16,54.5,42.4,32.9,36.4,32.3,28.5,93,69,42,30.40,30.19,16,0,16,0.01
2013-3-17,44.6,36.2,29.8,28.5,22.1,16.5,84,57,42,30.44,30.28,1,0,1,0.01
2013-3-18,59.0,40.5,26.8,26.9,23.7,18.2,82,55,24,30.44,30.37,1,0,1,0.00
2013-3-19,50.9,37.5,27.7,36.6,26.9,22.2,99,68,38,30.40,30.04,1,0,1,0.06
2013-3-20,57.4,43.3,31.3,44.0,35.7,24.5,99,75,50,30.31,29.89,17,0,17,0.11
2013-3-21,45.5,34.6,27.3,27.9,23.1,18.0,87,64,44,30.43,30.31,1,0,1,0.00
2013-3-22,43.2,33.2,24.1,24.4,19.2,10.5,94,61,32,30.53,30.40,1,0,1,0.00
2013-3-23,28.4,25.9,24.1,22.3,21.4,19.8,87,83,77,30.53,30.50,0,0,0,0.00
2013-3-24,49.6,37.0,24.8,26.3,22.5,17.7,76,57,38,30.47,30.33,0,0,0,0.00
2013-3-25,51.3,42.3,30.7,31.4,27.1,23.1,76,56,42,30.35,30.17,0,0,0,0.00
2013-3-26,54.0,45.0,37.8,40.0,35.8,27.9,88,71,55,30.25,30.19,0,0,0,0.00
2013-3-27,63.0,45.7,30.4,45.6,38.7,30.0,99,80,43,30.26,30.17,1,0,1,0.05
2013-3-28,62.8,48.5,39.4,47.3,43.4,39.1,99,85,48,30.39,30.25,1,0,1,0.05
2013-3-29,68.2,53.1,42.4,48.7,44.5,41.6,99,77,44,30.47,30.38,1,0,1,0.02
2013-3-30,70.9,53.9,35.2,49.4,42.9,35.0,99,71,43,30.48,30.32,1,0,1,0.00
2013-3-31,69.1,54.1,36.3,43.9,39.6,36.1,99,63,38,30.34,30.19,1,0,1,0.00
2013-4-1,68.7,53.2,40.6,47.5,43.7,40.4,99,74,44,30.39,30.23,1,0,1,0.00
2013-4-2,70.7,51.8,36.1,43.2,40.0,35.9,99,70,36,30.43,30.35,2,0,2,0.00
2013-4-3,72.5,53.9,34.9,41.6,36.7,31.3,98,60,27,30.43,30.23,2,0,2,0.00
2013-4-4,67.8,52.2,42.1,46.8,41.9,38.8,99,70,40,30.24,29.99,22,0,22,0.08
2013-4-5,59.4,48.3,40.5,42.5,39.6,35.2,99,75,46,30.25,30.16,1,0,1,0.01
2013-4-6,57.2,47.3,41.9,41.4,37.0,33.2,90,69,44,30.25,30.03,3,0,3,0.05
2013-4-7,50.7,43.3,32.7,39.4,32.6,24.5,87,67,44,30.13,29.92,2,0,2,0.05
2013-4-8,52.2,40.4,28.4,29.8,26.7,23.4,90,61,39,30.47,30.13,1,0,1,0.00
2013-4-9,64.0,45.3,25.2,35.3,28.7,24.0,97,60,27,30.56,30.46,1,0,1,0.00
2013-4-10,45.5,44.7,43.2,35.6,34.7,33.6,74,68,65,30.49,30.43,1,0,1,0.00
2013-4-14,51.3,39.1,28.2,32.8,26.5,17.6,99,64,29,30.23,30.10,1,0,1,0.00
2013-4-15,48.2,35.6,31.1,35.8,32.1,29.3,99,88,55,30.34,30.11,1,0,1,0.09
2013-4-16,49.5,37.6,28.8,36.6,29.0,20.1,99,75,38,30.57,30.33,1,0,1,0.00
2013-4-17,56.7,40.9,24.8,30.0,24.6,12.1,99,61,25,30.65,30.56,1,0,1,0.00
2013-4-18,66.2,49.4,33.6,40.3,34.6,27.4,84,60,39,30.63,30.51,1,0,1,0.00
2013-4-19,60.8,51.2,43.5,41.6,38.6,33.8,77,63,44,30.52,30.39,1,0,1,0.00
2013-4-20,63.7,50.1,37.9,35.9,33.7,30.0,84,57,35,30.51,30.42,1,0,1,0.00
2013-4-21,62.2,48.3,33.1,41.3,36.1,30.4,92,66,41,30.48,30.39,1,0,1,0.00
2013-4-22,56.5,45.6,35.1,35.9,25.5,14.0,89,52,24,30.65,30.47,2,0,2,0.00
2013-4-23,66.9,43.5,24.1,64.2,14.5,6.8,68,37,10,30.63,30.38,1,0,1,0.00
2013-4-24,74.8,52.9,27.9,23.8,16.3,11.6,56,29,13,30.56,30.30,1,0,1,0.00
2013-4-25,76.3,56.9,35.4,36.9,27.1,18.8,54,36,19,30.42,30.28,5,0,5,0.00
2013-4-26,53.4,45.2,39.7,31.8,31.2,30.4,71,59,44,30.48,30.41,1,0,1,0.00
2013-6-28,61.9,48.6,33.1,41.4,36.5,30.5,91,65,41,30.14,30.02,1,0,1,0.00
2013-6-29,56.5,44.7,28.4,35.7,24.7,13.9,89,50,25,30.27,30.14,1,0,1,0.00
2013-6-30,66.9,47.0,24.1,64.2,15.8,6.8,67,33,10,30.24,30.00,0,0,0,0.00
2013-7-1,74.8,53.1,27.9,25.9,20.0,13.9,56,30,13,30.18,29.92,0,0,0,0.00
2013-7-2,75.9,57.5,35.6,40.5,30.0,19.9,58,37,19,30.06,29.91,1,0,1,0.00
2013-7-3,81.5,62.7,39.7,41.8,34.7,29.2,71,39,16,30.16,30.05,0,0,0,0.00
2013-7-4,86.7,68.1,45.3,46.6,38.5,29.5,62,38,22,30.14,29.85,14,0,14,1.07
2013-7-5,81.9,65.4,48.7,46.5,40.5,30.8,83,47,21,29.91,29.80,12,0,18,0.00
2013-7-6,87.1,67.8,42.1,51.0,38.2,28.8,75,40,18,29.86,29.74,2,0,2,0.00
2013-7-7,90.9,72.8,51.8,52.8,48.8,43.9,85,49,25,29.86,29.74,11,0,11,0.00
2013-7-8,90.3,72.6,50.4,49.6,45.1,40.0,84,45,22,29.99,29.85,11,0,14,0.00
2013-7-9,97.7,78.5,55.0,54.9,48.9,45.2,75,41,24,30.03,29.89,17,0,17,0.00
2013-7-10,95.7,78.0,59.9,56.8,49.8,38.7,74,43,23,29.97,29.80,17,0,17,0.00
2013-7-11,66.7,63.3,60.1,48.9,47.7,45.9,65,58,49,29.89,29.86,2,0,2,0.00
2013-12-1,59.2,52.4,42.3,46.6,43.1,34.6,90,71,63,30.09,29.74,0,0,0,0.02
2013-12-2,46.4,37.7,28.8,44.3,32.7,21.8,99,83,53,29.81,29.70,0,0,0,0.43
2013-12-3,29.7,22.4,12.6,26.2,16.8,6.7,99,80,52,30.03,29.80,0,0,0,0.00
2013-12-4,25.5,14.7,3.4,12.1,5.3,-0.9,84,67,47,30.09,30.02,0,0,0,0.00
2013-12-5,23.9,11.6,-1.1,10.2,4.1,-4.3,87,73,50,30.07,29.94,0,0,0,0.00
2013-12-6,13.5,10.8,9.5,10.8,8.5,6.8,93,90,85,29.97,29.79,0,0,0,0.00
2013-12-7,11.1,2.2,-11.6,7.8,-4.7,-16.2,92,73,51,30.12,29.83,0,0,0,0.00
2013-12-8,19.8,-0.9,-14.1,4.4,-7.6,-18.9,87,73,50,30.12,29.92,0,0,0,0.00
2013-12-9,31.5,14.5,-0.4,13.1,4.7,-5.3,86,66,45,30.12,29.99,1,0,1,0.00
2013-12-10,34.7,20.6,11.5,21.9,14.6,7.0,96,78,60,30.03,29.97,0,0,0,0.00
2013-12-11,17.2,16.3,15.3,16.6,15.6,14.1,99,97,93,30.00,29.97,0,0,0,0.00